Time,TemperatureF,DewpointF,PressureIn,WindDirection,WindDirectionDegrees,WindSpeedMPH,WindSpeedGustMPH,Humidity,HourlyPrecipIn,Conditions,Clouds,dailyrainin,SoftwareType,DateUTC
2013-01-12 00:04:00,24.8,18.0,29.76,West,270,5.6,9.6,75,0.00,,,0.00,WUHU216HW,2013-01-12 06:04:00,
2013-01-12 00:09:00,24.8,18.0,29.76,West,270,3.6,8.3,75,0.00,,,0.00,WUHU216HW,2013-01-12 06:09:00,
2013-01-12 00:14:00,24.7,17.8,29.77,West,270,5.1,8.3,75,0.00,,,0.00,WUHU216HW,2013-01-12 06:14:00,
2013-01-12 00:19:00,24.5,17.6,29.77,West,270,4.9,8.1,75,0.00,,,0.00,WUHU216HW,2013-01-12 06:19:00,
2013-01-12 00:24:00,24.5,17.6,29.77,West,270,5.4,8.1,75,0.00,,,0.00,WUHU216HW,2013-01-12 06:24:00,
2013-01-12 00:29:00,24.5,18.0,29.77,West,270,5.8,7.4,76,0.00,,,0.00,WUHU216HW,2013-01-12 06:29:00,
2013-01-12 00:35:00,24.5,18.0,29.77,West,270,6.9,8.7,76,0.00,,,0.00,WUHU216HW,2013-01-12 06:35:00,
2013-01-12 00:40:00,24.3,18.1,29.78,West,270,6.3,8.7,77,0.00,,,0.00,WUHU216HW,2013-01-12 06:40:00,
2013-01-12 00:45:00,24.1,17.7,29.79,West,270,6.5,6.5,76,0.00,,,0.00,WUHU216HW,2013-01-12 06:45:00,
2013-01-12 00:50:00,24.1,17.7,29.79,West,270,5.1,6.5,76,0.00,,,0.00,WUHU216HW,2013-01-12 06:50:00,
2013-01-12 00:55:00,24.1,17.7,29.80,West,270,2.9,5.4,76,0.00,,,0.00,WUHU216HW,2013-01-12 06:55:00,
2013-01-12 01:00:00,24.1,17.7,29.80,West,270,3.4,5.4,76,0.00,,,0.00,WUHU216HW,2013-01-12 07:00:00,
2013-01-12 01:05:00,24.1,17.3,29.80,West,270,6.9,6.9,75,0.00,,,0.00,WUHU216HW,2013-01-12 07:05:00,
2013-01-12 01:10:00,24.1,17.3,29.81,West,270,4.9,6.9,75,0.00,,,0.00,WUHU216HW,2013-01-12 07:10:00,
2013-01-12 01:15:00,24.1,17.3,29.81,West,270,6.5,7.4,75,0.00,,,0.00,WUHU216HW,2013-01-12 07:15:00,
2013-01-12 01:21:00,24.1,17.3,29.82,West,270,5.4,7.4,75,0.00,,,0.00,WUHU216HW,2013-01-12 07:21:00,
2013-01-12 01:26:00,24.1,17.3,29.82,West,270,3.8,5.4,75,0.00,,,0.00,WUHU216HW,2013-01-12 07:26:00,
2013-01-12 01:31:00,23.9,17.1,29.83,West,270,5.8,6.0,75,0.00,,,0.00,WUHU216HW,2013-01-12 07:31:00,
2013-01-12 01:36:00,23.9,16.8,29.84,West,270,6.0,8.9,74,0.00,,,0.00,WUHU216HW,2013-01-12 07:36:00,
2013-01-12 01:41:00,23.8,16.7,29.84,West,270,7.8,8.9,74,0.00,,,0.00,WUHU216HW,2013-01-12 07:41:00,
2013-01-12 01:46:00,23.8,16.7,29.84,West,270,5.4,8.5,74,0.00,,,0.00,WUHU216HW,2013-01-12 07:46:00,
2013-01-12 01:51:00,23.4,16.3,29.85,West,270,3.4,7.8,74,0.00,,,0.00,WUHU216HW,2013-01-12 07:51:00,
2013-01-12 01:56:00,23.4,16.7,29.85,West,270,4.7,6.9,75,0.00,,,0.00,WUHU216HW,2013-01-12 07:56:00,
2013-01-12 02:01:00,23.2,16.5,29.85,West,270,3.8,6.5,75,0.00,,,0.00,WUHU216HW,2013-01-12 08:01:00,
2013-01-12 02:06:00,23.4,16.9,29.85,West,270,4.7,5.1,76,0.00,,,0.00,WUHU216HW,2013-01-12 08:06:00,
2013-01-12 02:11:00,23.4,16.9,29.86,West,270,3.4,4.7,76,0.00,,,0.00,WUHU216HW,2013-01-12 08:11:00,
2013-01-12 02:17:00,23.4,16.7,29.87,West,270,5.4,5.4,75,0.00,,,0.00,WUHU216HW,2013-01-12 08:17:00,
2013-01-12 02:22:00,23.2,16.7,29.87,West,270,3.4,5.4,76,0.00,,,0.00,WUHU216HW,2013-01-12 08:22:00,
2013-01-12 02:27:00,23.2,16.5,29.87,West,270,4.3,4.9,75,0.00,,,0.00,WUHU216HW,2013-01-12 08:27:00,
2013-01-12 02:32:00,23.0,16.3,29.88,West,270,4.0,4.7,75,0.00,,,0.00,WUHU216HW,2013-01-12 08:32:00,
2013-01-12 02:37:00,22.9,16.4,29.87,West,270,4.7,4.9,76,0.00,,,0.00,WUHU216HW,2013-01-12 08:37:00,
2013-01-12 02:42:00,22.7,16.2,29.87,West,270,4.9,6.9,76,0.00,,,0.00,WUHU216HW,2013-01-12 08:42:00,
2013-01-12 02:47:00,22.5,16.0,29.88,West,270,3.8,7.2,76,0.00,,,0.00,WUHU216HW,2013-01-12 08:47:00,
2013-01-12 02:52:00,22.3,15.6,29.88,West,270,5.1,7.2,75,0.00,,,0.00,WUHU216HW,2013-01-12 08:52:00,
2013-01-12 02:57:00,22.1,15.1,29.89,West,270,4.7,6.9,74,0.00,,,0.00,WUHU216HW,2013-01-12 08:57:00,
2013-01-12 03:02:00,22.1,14.8,29.90,West,270,3.4,6.3,73,0.00,,,0.00,WUHU216HW,2013-01-12 09:02:00,
2013-01-12 03:08:00,22.0,14.6,29.90,West,270,3.6,6.3,73,0.00,,,0.00,WUHU216HW,2013-01-12 09:08:00,
2013-01-12 03:13:00,22.0,14.6,29.91,West,270,4.0,4.5,73,0.00,,,0.00,WUHU216HW,2013-01-12 09:13:00,
2013-01-12 03:18:00,21.8,14.1,29.91,West,270,3.1,4.5,72,0.00,,,0.00,WUHU216HW,2013-01-12 09:18:00,
2013-01-12 03:23:00,21.8,14.1,29.91,West,270,3.6,6.9,72,0.00,,,0.00,WUHU216HW,2013-01-12 09:23:00,
2013-01-12 03:28:00,21.6,14.2,29.91,West,270,3.4,6.9,73,0.00,,,0.00,WUHU216HW,2013-01-12 09:28:00,
2013-01-12 03:33:00,21.2,13.9,29.92,West,270,3.4,4.5,73,0.00,,,0.00,WUHU216HW,2013-01-12 09:33:00,
2013-01-12 03:38:00,21.2,14.2,29.92,West,270,3.1,4.3,74,0.00,,,0.00,WUHU216HW,2013-01-12 09:38:00,
2013-01-12 03:43:00,21.1,14.1,29.92,West,270,4.3,4.3,74,0.00,,,0.00,WUHU216HW,2013-01-12 09:43:00,
2013-01-12 03:48:00,21.1,13.4,29.91,West,270,8.9,8.9,72,0.00,,,0.00,WUHU216HW,2013-01-12 09:48:00,
2013-01-12 03:53:00,20.9,13.5,29.91,West,270,3.8,8.9,73,0.00,,,0.00,WUHU216HW,2013-01-12 09:53:00,
2013-01-12 03:58:00,20.7,13.7,29.91,West,270,6.0,6.7,74,0.00,,,0.00,WUHU216HW,2013-01-12 09:58:00,
2013-01-12 04:03:00,20.7,13.7,29.91,West,270,3.6,6.0,74,0.00,,,0.00,WUHU216HW,2013-01-12 10:03:00,
2013-01-12 04:08:00,20.5,13.5,29.92,West,270,3.4,5.1,74,0.00,,,0.00,WUHU216HW,2013-01-12 10:08:00,
2013-01-12 04:13:00,20.5,13.5,29.92,West,270,2.9,4.5,74,0.00,,,0.00,WUHU216HW,2013-01-12 10:13:00,
2013-01-12 04:18:00,20.3,13.3,29.93,West,270,2.2,4.5,74,0.00,,,0.00,WUHU216HW,2013-01-12 10:18:00,
2013-01-12 04:23:00,20.2,13.2,29.93,West,270,2.5,2.9,74,0.00,,,0.00,WUHU216HW,2013-01-12 10:23:00,
2013-01-12 04:28:00,20.0,13.0,29.93,West,270,2.9,2.9,74,0.00,,,0.00,WUHU216HW,2013-01-12 10:28:00,
2013-01-12 04:33:00,19.8,13.1,29.93,West,270,1.6,2.9,75,0.00,,,0.00,WUHU216HW,2013-01-12 10:33:00,
2013-01-12 04:38:00,19.8,13.1,29.94,West,270,2.0,2.9,75,0.00,,,0.00,WUHU216HW,2013-01-12 10:38:00,
2013-01-12 04:44:00,19.6,12.9,29.94,West,270,1.8,2.9,75,0.00,,,0.00,WUHU216HW,2013-01-12 10:44:00,
2013-01-12 04:49:00,19.6,12.9,29.94,West,270,1.1,2.7,75,0.00,,,0.00,WUHU216HW,2013-01-12 10:49:00,
2013-01-12 04:54:00,19.4,12.7,29.94,West,270,1.1,2.7,75,0.00,,,0.00,WUHU216HW,2013-01-12 10:54:00,
2013-01-12 04:59:00,19.3,12.8,29.94,West,270,1.8,1.8,76,0.00,,,0.00,WUHU216HW,2013-01-12 10:59:00,
2013-01-12 05:04:00,19.1,12.7,29.94,West,270,1.1,1.8,76,0.00,,,0.00,WUHU216HW,2013-01-12 11:04:00,
2013-01-12 05:09:00,19.1,12.7,29.95,West,270,1.3,1.6,76,0.00,,,0.00,WUHU216HW,2013-01-12 11:09:00,
2013-01-12 05:14:00,18.9,12.5,29.95,West,270,2.9,2.9,76,0.00,,,0.00,WUHU216HW,2013-01-12 11:14:00,
2013-01-12 05:19:00,19.1,12.7,29.95,West,270,2.5,3.4,76,0.00,,,0.00,WUHU216HW,2013-01-12 11:19:00,
2013-01-12 05:24:00,19.1,12.3,29.95,West,270,4.7,4.7,75,0.00,,,0.00,WUHU216HW,2013-01-12 11:24:00,
2013-01-12 05:29:00,19.1,12.3,29.95,West,270,3.1,4.7,75,0.00,,,0.00,WUHU216HW,2013-01-12 11:29:00,
2013-01-12 05:34:00,19.1,12.3,29.95,West,270,3.4,4.7,75,0.00,,,0.00,WUHU216HW,2013-01-12 11:34:00,
2013-01-12 05:39:00,18.7,12.0,29.95,West,270,2.5,4.3,75,0.00,,,0.00,WUHU216HW,2013-01-12 11:39:00,
2013-01-12 05:44:00,18.7,12.0,29.95,West,270,1.6,3.8,75,0.00,,,0.00,WUHU216HW,2013-01-12 11:44:00,
2013-01-12 05:49:00,18.5,11.9,29.95,West,270,3.4,4.5,75,0.00,,,0.00,WUHU216HW,2013-01-12 11:49:00,
2013-01-12 05:54:00,18.4,11.7,29.95,West,270,3.6,4.5,75,0.00,,,0.00,WUHU216HW,2013-01-12 11:54:00,
2013-01-12 05:59:00,18.4,11.3,29.96,West,270,4.0,4.0,74,0.00,,,0.00,WUHU216HW,2013-01-12 11:59:00,
2013-01-12 06:04:00,18.4,11.3,29.96,West,270,3.6,4.7,74,0.00,,,0.00,WUHU216HW,2013-01-12 12:04:00,
2013-01-12 06:09:00,18.2,11.2,29.97,West,270,3.4,4.7,74,0.00,,,0.00,WUHU216HW,2013-01-12 12:09:00,
2013-01-12 06:14:00,18.0,11.1,29.97,West,270,3.1,4.7,74,0.00,,,0.00,WUHU216HW,2013-01-12 12:14:00,
2013-01-12 06:19:00,18.0,11.1,29.97,West,270,2.5,4.0,74,0.00,,,0.00,WUHU216HW,2013-01-12 12:19:00,
2013-01-12 06:24:00,17.8,10.9,29.97,West,270,3.4,4.0,74,0.00,,,0.00,WUHU216HW,2013-01-12 12:24:00,
2013-01-12 06:29:00,17.8,10.5,29.97,West,270,4.0,4.0,73,0.00,,,0.00,WUHU216HW,2013-01-12 12:29:00,
2013-01-12 06:34:00,17.6,10.7,29.97,West,270,2.5,4.0,74,0.00,,,0.00,WUHU216HW,2013-01-12 12:34:00,
2013-01-12 06:40:00,17.6,10.7,29.97,West,270,2.7,3.4,74,0.00,,,0.00,WUHU216HW,2013-01-12 12:40:00,
2013-01-12 06:45:00,17.5,10.5,29.98,West,270,2.9,3.4,74,0.00,,,0.00,WUHU216HW,2013-01-12 12:45:00,
2013-01-12 06:50:00,17.5,10.5,29.98,West,270,4.0,4.0,74,0.00,,,0.00,WUHU216HW,2013-01-12 12:50:00,
2013-01-12 06:55:00,17.5,10.5,29.98,West,270,2.9,4.7,74,0.00,,,0.00,WUHU216HW,2013-01-12 12:55:00,
2013-01-12 07:00:00,17.3,10.1,29.98,West,270,2.5,4.7,73,0.00,,,0.00,WUHU216HW,2013-01-12 13:00:00,
2013-01-12 07:05:00,17.3,9.7,29.99,West,270,2.7,4.5,72,0.00,,,0.00,WUHU216HW,2013-01-12 13:05:00,
2013-01-12 07:10:00,17.1,9.9,30.00,West,270,2.7,4.0,73,0.00,,,0.00,WUHU216HW,2013-01-12 13:10:00,
2013-01-12 07:15:00,16.9,9.7,30.00,West,270,1.8,4.0,73,0.00,,,0.00,WUHU216HW,2013-01-12 13:15:00,
2013-01-12 07:20:00,16.7,9.6,30.00,West,270,1.8,2.5,73,0.00,,,0.00,WUHU216HW,2013-01-12 13:20:00,
2013-01-12 07:25:00,16.7,9.6,30.00,West,270,1.6,2.5,73,0.00,,,0.00,WUHU216HW,2013-01-12 13:25:00,
2013-01-12 07:30:00,16.6,9.6,30.00,West,270,1.3,2.5,74,0.00,,,0.00,WUHU216HW,2013-01-12 13:30:00,
2013-01-12 07:35:00,16.2,9.3,30.01,West,270,3.4,3.4,74,0.00,,,0.00,WUHU216HW,2013-01-12 13:35:00,
2013-01-12 07:40:00,16.4,9.5,30.01,West,270,2.7,3.6,74,0.00,,,0.00,WUHU216HW,2013-01-12 13:40:00,
2013-01-12 07:45:00,16.4,9.5,30.01,West,270,2.7,3.6,74,0.00,,,0.00,WUHU216HW,2013-01-12 13:45:00,
2013-01-12 07:51:00,16.4,9.5,30.01,West,270,2.9,3.6,74,0.00,,,0.00,WUHU216HW,2013-01-12 13:51:00,
2013-01-12 07:56:00,16.2,9.6,30.01,West,270,3.4,3.6,75,0.00,,,0.00,WUHU216HW,2013-01-12 13:56:00,
2013-01-12 08:01:00,16.2,9.3,30.02,West,270,3.4,4.5,74,0.00,,,0.00,WUHU216HW,2013-01-12 14:01:00,
2013-01-12 08:06:00,16.2,9.0,30.03,West,270,2.9,4.5,73,0.00,,,0.00,WUHU216HW,2013-01-12 14:06:00,
2013-01-12 08:11:00,16.2,9.3,30.03,West,270,2.9,4.3,74,0.00,,,0.00,WUHU216HW,2013-01-12 14:11:00,
2013-01-12 08:16:00,16.2,9.3,30.03,West,270,2.9,4.0,74,0.00,,,0.00,WUHU216HW,2013-01-12 14:16:00,
2013-01-12 08:21:00,16.4,9.2,30.03,West,270,6.0,6.0,73,0.00,,,0.00,WUHU216HW,2013-01-12 14:21:00,
2013-01-12 08:26:00,17.1,9.3,30.02,West,270,3.8,6.0,71,0.00,,,0.00,WUHU216HW,2013-01-12 14:26:00,
2013-01-12 08:31:00,17.6,9.8,30.03,West,270,3.6,5.4,71,0.00,,,0.00,WUHU216HW,2013-01-12 14:31:00,
2013-01-12 08:36:00,18.4,9.8,30.04,West,270,3.4,3.6,69,0.00,,,0.00,WUHU216HW,2013-01-12 14:36:00,
2013-01-12 08:41:00,18.4,9.8,30.04,West,270,3.8,3.8,69,0.00,,,0.00,WUHU216HW,2013-01-12 14:41:00,
2013-01-12 08:46:00,17.8,9.7,30.04,West,270,2.5,3.8,70,0.00,,,0.00,WUHU216HW,2013-01-12 14:46:00,
2013-01-12 08:51:00,18.0,9.6,30.05,West,270,4.0,4.0,69,0.00,,,0.00,WUHU216HW,2013-01-12 14:51:00,
2013-01-12 08:56:00,19.1,10.2,30.04,West,270,3.4,4.0,68,0.00,,,0.00,WUHU216HW,2013-01-12 14:56:00,
2013-01-12 09:02:00,18.7,9.5,30.04,West,270,3.6,4.5,67,0.00,,,0.00,WUHU216HW,2013-01-12 15:02:00,
2013-01-12 09:07:00,19.1,9.8,30.04,West,270,3.4,4.7,67,0.00,,,0.00,WUHU216HW,2013-01-12 15:07:00,
2013-01-12 09:12:00,18.7,9.8,30.05,West,270,3.1,4.7,68,0.00,,,0.00,WUHU216HW,2013-01-12 15:12:00,
2013-01-12 09:17:00,19.4,9.8,30.05,West,270,3.8,4.3,66,0.00,,,0.00,WUHU216HW,2013-01-12 15:17:00,
2013-01-12 09:22:00,19.6,9.6,30.05,West,270,4.0,4.7,65,0.00,,,0.00,WUHU216HW,2013-01-12 15:22:00,
2013-01-12 09:27:00,18.9,9.0,30.05,West,270,2.9,6.7,65,0.00,,,0.00,WUHU216HW,2013-01-12 15:27:00,
2013-01-12 09:32:00,19.1,8.8,30.05,West,270,4.7,6.7,64,0.00,,,0.00,WUHU216HW,2013-01-12 15:32:00,
2013-01-12 09:37:00,20.0,10.0,30.07,West,270,4.3,6.7,65,0.00,,,0.00,WUHU216HW,2013-01-12 15:37:00,
2013-01-12 09:42:00,20.0,9.6,30.05,West,270,4.9,6.3,64,0.00,,,0.00,WUHU216HW,2013-01-12 15:42:00,
2013-01-12 09:47:00,20.0,9.3,30.05,West,270,4.5,7.4,63,0.00,,,0.00,WUHU216HW,2013-01-12 15:47:00,
2013-01-12 09:52:00,19.8,9.1,30.06,West,270,5.6,7.4,63,0.00,,,0.00,WUHU216HW,2013-01-12 15:52:00,
2013-01-12 09:57:00,18.9,9.0,30.07,West,270,4.0,6.3,65,0.00,,,0.00,WUHU216HW,2013-01-12 15:57:00,
2013-01-12 10:02:00,19.4,9.5,30.06,West,270,4.0,6.3,65,0.00,,,0.00,WUHU216HW,2013-01-12 16:02:00,
2013-01-12 10:08:00,20.7,10.4,30.05,West,270,7.4,7.4,64,0.00,,,0.00,WUHU216HW,2013-01-12 16:08:00,
2013-01-12 10:13:00,20.5,9.8,30.05,West,270,6.5,7.4,63,0.00,,,0.00,WUHU216HW,2013-01-12 16:13:00,
2013-01-12 10:18:00,20.2,9.5,30.06,West,270,5.1,8.5,63,0.00,,,0.00,WUHU216HW,2013-01-12 16:18:00,
2013-01-12 10:23:00,19.8,9.8,30.06,West,270,3.4,8.5,65,0.00,,,0.00,WUHU216HW,2013-01-12 16:23:00,
2013-01-12 10:28:00,20.5,9.6,30.07,West,270,6.5,6.7,62,0.00,,,0.00,WUHU216HW,2013-01-12 16:28:00,
2013-01-12 10:33:00,20.7,10.0,30.07,West,270,3.1,6.7,63,0.00,,,0.00,WUHU216HW,2013-01-12 16:33:00,
2013-01-12 10:38:00,21.2,10.3,30.07,West,270,4.9,6.3,62,0.00,,,0.00,WUHU216HW,2013-01-12 16:38:00,
2013-01-12 10:43:00,21.4,10.4,30.07,West,270,7.2,7.6,62,0.00,,,0.00,WUHU216HW,2013-01-12 16:43:00,
2013-01-12 10:48:00,21.1,9.4,30.07,West,270,7.2,7.6,60,0.00,,,0.00,WUHU216HW,2013-01-12 16:48:00,
2013-01-12 10:53:00,21.2,10.3,30.07,West,270,5.4,7.2,62,0.00,,,0.00,WUHU216HW,2013-01-12 16:53:00,
2013-01-12 10:58:00,21.6,10.2,30.07,West,270,3.4,6.0,61,0.00,,,0.00,WUHU216HW,2013-01-12 16:58:00,
2013-01-12 11:04:00,21.8,10.7,30.07,West,270,4.5,7.4,62,0.00,,,0.00,WUHU216HW,2013-01-12 17:04:00,
2013-01-12 11:09:00,22.0,10.5,30.07,West,270,5.8,8.3,61,0.00,,,0.00,WUHU216HW,2013-01-12 17:09:00,
2013-01-12 11:14:00,21.4,10.1,30.07,West,270,5.6,8.3,61,0.00,,,0.00,WUHU216HW,2013-01-12 17:14:00,
2013-01-12 11:19:00,20.9,9.9,30.07,West,270,7.6,7.6,62,0.00,,,0.00,WUHU216HW,2013-01-12 17:19:00,
2013-01-12 11:24:00,20.7,10.4,30.06,West,270,6.5,7.6,64,0.00,,,0.00,WUHU216HW,2013-01-12 17:24:00,
2013-01-12 11:29:00,20.5,10.5,30.07,West,270,6.0,7.6,65,0.00,,,0.00,WUHU216HW,2013-01-12 17:29:00,
2013-01-12 11:34:00,20.3,9.6,30.07,West,270,7.6,7.6,63,0.00,,,0.00,WUHU216HW,2013-01-12 17:34:00,
2013-01-12 11:39:00,20.7,11.4,30.06,West,270,3.4,7.6,67,0.00,,,0.00,WUHU216HW,2013-01-12 17:39:00,
2013-01-12 11:44:00,20.5,9.8,30.06,West,270,6.3,6.9,63,0.00,,,0.00,WUHU216HW,2013-01-12 17:44:00,
2013-01-12 11:49:00,20.9,10.9,30.06,West,270,3.4,6.9,65,0.00,,,0.00,WUHU216HW,2013-01-12 17:49:00,
2013-01-12 11:54:00,20.9,11.3,30.05,West,270,3.1,5.8,66,0.00,,,0.00,WUHU216HW,2013-01-12 17:54:00,
2013-01-12 11:59:00,20.5,10.5,30.05,West,270,4.0,6.7,65,0.00,,,0.00,WUHU216HW,2013-01-12 17:59:00,
2013-01-12 12:05:00,21.1,11.1,30.04,West,270,3.8,6.7,65,0.00,,,0.00,WUHU216HW,2013-01-12 18:05:00,
2013-01-12 12:10:00,21.1,11.1,30.05,West,270,6.3,6.3,65,0.00,,,0.00,WUHU216HW,2013-01-12 18:10:00,
2013-01-12 12:15:00,20.9,10.5,30.04,West,270,6.5,7.2,64,0.00,,,0.00,WUHU216HW,2013-01-12 18:15:00,
2013-01-12 12:20:00,21.1,11.1,30.03,West,270,7.2,7.2,65,0.00,,,0.00,WUHU216HW,2013-01-12 18:20:00,
2013-01-12 12:25:00,20.9,10.9,30.03,West,270,6.3,8.9,65,0.00,,,0.00,WUHU216HW,2013-01-12 18:25:00,
2013-01-12 12:30:00,21.2,11.3,30.02,West,270,8.5,9.2,65,0.00,,,0.00,WUHU216HW,2013-01-12 18:30:00,
2013-01-12 12:35:00,21.2,11.3,30.02,West,270,4.9,9.2,65,0.00,,,0.00,WUHU216HW,2013-01-12 18:35:00,
2013-01-12 12:40:00,21.2,10.9,30.01,West,270,8.1,8.1,64,0.00,,,0.00,WUHU216HW,2013-01-12 18:40:00,
2013-01-12 12:45:00,21.1,11.1,30.01,West,270,6.5,8.5,65,0.00,,,0.00,WUHU216HW,2013-01-12 18:45:00,
2013-01-12 12:50:00,21.1,10.7,30.01,West,270,4.0,8.5,64,0.00,,,0.00,WUHU216HW,2013-01-12 18:50:00,
2013-01-12 12:55:00,21.2,10.9,30.02,West,270,6.3,8.5,64,0.00,,,0.00,WUHU216HW,2013-01-12 18:55:00,
2013-01-12 13:00:00,21.2,10.9,30.02,West,270,4.9,8.5,64,0.00,,,0.00,WUHU216HW,2013-01-12 19:00:00,
2013-01-12 13:06:00,21.4,10.7,30.02,West,270,4.5,6.5,63,0.00,,,0.00,WUHU216HW,2013-01-12 19:06:00,
2013-01-12 13:11:00,21.4,10.7,30.02,West,270,4.7,4.7,63,0.00,,,0.00,WUHU216HW,2013-01-12 19:11:00,
2013-01-12 13:16:00,21.4,10.7,30.01,West,270,4.3,4.7,63,0.00,,,0.00,WUHU216HW,2013-01-12 19:16:00,
2013-01-12 13:21:00,21.2,10.3,30.01,West,270,4.5,5.6,62,0.00,,,0.00,WUHU216HW,2013-01-12 19:21:00,
2013-01-12 13:26:00,21.6,11.3,30.01,West,270,4.5,5.6,64,0.00,,,0.00,WUHU216HW,2013-01-12 19:26:00,
2013-01-12 13:31:00,21.8,11.4,30.01,West,270,4.3,5.4,64,0.00,,,0.00,WUHU216HW,2013-01-12 19:31:00,
2013-01-12 13:36:00,21.6,10.9,30.00,West,270,6.5,6.5,63,0.00,,,0.00,WUHU216HW,2013-01-12 19:36:00,
2013-01-12 13:41:00,22.0,12.0,30.00,West,270,3.4,6.5,65,0.00,,,0.00,WUHU216HW,2013-01-12 19:41:00,
2013-01-12 13:46:00,22.0,11.3,30.00,West,270,2.5,4.0,63,0.00,,,0.00,WUHU216HW,2013-01-12 19:46:00,
2013-01-12 13:51:00,22.3,12.6,30.01,West,270,6.5,6.5,66,0.00,,,0.00,WUHU216HW,2013-01-12 19:51:00,
2013-01-12 13:56:00,21.6,10.5,30.01,West,270,3.6,6.5,62,0.00,,,0.00,WUHU216HW,2013-01-12 19:56:00,
2013-01-12 14:01:00,21.4,11.1,30.02,West,270,3.6,4.3,64,0.00,,,0.00,WUHU216HW,2013-01-12 20:01:00,
2013-01-12 14:06:00,21.6,11.3,30.02,West,270,3.1,4.3,64,0.00,,,0.00,WUHU216HW,2013-01-12 20:06:00,
2013-01-12 14:11:00,21.8,11.4,30.02,West,270,4.7,4.7,64,0.00,,,0.00,WUHU216HW,2013-01-12 20:11:00,
2013-01-12 14:17:00,21.6,11.6,30.02,West,270,4.9,4.9,65,0.00,,,0.00,WUHU216HW,2013-01-12 20:17:00,
2013-01-12 14:22:00,22.0,12.0,30.02,West,270,4.7,4.9,65,0.00,,,0.00,WUHU216HW,2013-01-12 20:22:00,
2013-01-12 14:27:00,21.8,11.4,30.02,West,270,5.4,5.4,64,0.00,,,0.00,WUHU216HW,2013-01-12 20:27:00,
2013-01-12 14:32:00,21.4,10.7,30.02,West,270,2.9,5.4,63,0.00,,,0.00,WUHU216HW,2013-01-12 20:32:00,
2013-01-12 14:37:00,21.2,11.3,30.03,West,270,1.3,4.3,65,0.00,,,0.00,WUHU216HW,2013-01-12 20:37:00,
2013-01-12 14:42:00,21.6,11.6,30.02,West,270,3.1,4.0,65,0.00,,,0.00,WUHU216HW,2013-01-12 20:42:00,
2013-01-12 14:47:00,21.2,9.9,30.03,West,270,3.4,4.0,61,0.00,,,0.00,WUHU216HW,2013-01-12 20:47:00,
2013-01-12 14:52:00,20.9,10.5,30.02,West,270,5.8,5.8,64,0.00,,,0.00,WUHU216HW,2013-01-12 20:52:00,
2013-01-12 14:57:00,20.9,10.9,30.02,West,270,4.5,5.8,65,0.00,,,0.00,WUHU216HW,2013-01-12 20:57:00,
2013-01-12 15:02:00,20.7,10.4,30.03,West,270,4.7,7.4,64,0.00,,,0.00,WUHU216HW,2013-01-12 21:02:00,
2013-01-12 15:07:00,21.1,11.1,30.03,West,270,3.8,7.4,65,0.00,,,0.00,WUHU216HW,2013-01-12 21:07:00,
2013-01-12 15:12:00,21.2,11.3,30.03,West,270,4.0,4.0,65,0.00,,,0.00,WUHU216HW,2013-01-12 21:12:00,
2013-01-12 15:17:00,20.5,10.2,30.02,West,270,6.3,6.3,64,0.00,,,0.00,WUHU216HW,2013-01-12 21:17:00,
2013-01-12 15:22:00,20.3,10.4,30.02,West,270,2.9,6.3,65,0.00,,,0.00,WUHU216HW,2013-01-12 21:22:00,
2013-01-12 15:27:00,20.5,10.9,30.03,West,270,1.1,4.9,66,0.00,,,0.00,WUHU216HW,2013-01-12 21:27:00,
2013-01-12 15:32:00,20.5,10.5,30.02,West,270,3.4,4.0,65,0.00,,,0.00,WUHU216HW,2013-01-12 21:32:00,
2013-01-12 15:37:00,20.5,10.5,30.03,West,270,4.0,4.0,65,0.00,,,0.00,WUHU216HW,2013-01-12 21:37:00,
2013-01-12 15:42:00,20.5,10.5,30.03,West,270,3.1,4.0,65,0.00,,,0.00,WUHU216HW,2013-01-12 21:42:00,
2013-01-12 15:47:00,20.3,9.6,30.04,West,270,1.8,3.4,63,0.00,,,0.00,WUHU216HW,2013-01-12 21:47:00,
2013-01-12 15:52:00,20.3,10.4,30.04,West,270,3.1,3.1,65,0.00,,,0.00,WUHU216HW,2013-01-12 21:52:00,
2013-01-12 15:57:00,20.3,10.4,30.04,West,270,3.1,3.1,65,0.00,,,0.00,WUHU216HW,2013-01-12 21:57:00,
2013-01-12 16:02:00,19.8,9.8,30.04,West,270,3.1,3.4,65,0.00,,,0.00,WUHU216HW,2013-01-12 22:02:00,
2013-01-12 16:07:00,19.8,9.8,30.04,West,270,2.7,3.4,65,0.00,,,0.00,WUHU216HW,2013-01-12 22:07:00,
2013-01-12 16:12:00,19.8,9.8,30.03,West,270,2.7,3.4,65,0.00,,,0.00,WUHU216HW,2013-01-12 22:12:00,
2013-01-12 16:17:00,19.8,9.8,30.04,West,270,1.8,3.4,65,0.00,,,0.00,WUHU216HW,2013-01-12 22:17:00,
2013-01-12 16:22:00,19.8,9.8,30.05,West,270,2.0,2.9,65,0.00,,,0.00,WUHU216HW,2013-01-12 22:22:00,
2013-01-12 16:27:00,19.6,9.6,30.05,West,270,2.7,2.9,65,0.00,,,0.00,WUHU216HW,2013-01-12 22:27:00,
2013-01-12 16:32:00,19.4,9.5,30.05,West,270,2.0,3.4,65,0.00,,,0.00,WUHU216HW,2013-01-12 22:32:00,
2013-01-12 16:37:00,19.4,9.8,30.04,West,270,3.1,3.4,66,0.00,,,0.00,WUHU216HW,2013-01-12 22:37:00,
2013-01-12 16:42:00,19.3,9.3,30.05,West,270,2.2,3.8,65,0.00,,,0.00,WUHU216HW,2013-01-12 22:42:00,
2013-01-12 16:48:00,19.1,9.5,30.05,West,270,3.1,3.8,66,0.00,,,0.00,WUHU216HW,2013-01-12 22:48:00,
2013-01-12 16:53:00,19.1,9.1,30.05,West,270,3.1,3.4,65,0.00,,,0.00,WUHU216HW,2013-01-12 22:53:00,
2013-01-12 16:58:00,18.9,9.6,30.05,West,270,2.9,3.4,67,0.00,,,0.00,WUHU216HW,2013-01-12 22:58:00,
2013-01-12 17:03:00,18.7,9.2,30.06,West,270,2.9,3.4,66,0.00,,,0.00,WUHU216HW,2013-01-12 23:03:00,
2013-01-12 17:08:00,18.5,9.6,30.05,West,270,2.0,3.4,68,0.00,,,0.00,WUHU216HW,2013-01-12 23:08:00,
2013-01-12 17:13:00,18.4,9.2,30.05,West,270,2.5,3.4,67,0.00,,,0.00,WUHU216HW,2013-01-12 23:13:00,
2013-01-12 17:18:00,18.2,9.7,30.06,West,270,3.1,3.6,69,0.00,,,0.00,WUHU216HW,2013-01-12 23:18:00,
2013-01-12 17:23:00,18.0,9.2,30.06,West,270,3.8,3.8,68,0.00,,,0.00,WUHU216HW,2013-01-12 23:23:00,
2013-01-12 17:28:00,17.8,9.0,30.07,West,270,2.5,3.8,68,0.00,,,0.00,WUHU216HW,2013-01-12 23:28:00,
2013-01-12 17:33:00,17.6,9.2,30.07,West,270,3.1,3.4,69,0.00,,,0.00,WUHU216HW,2013-01-12 23:33:00,
2013-01-12 17:38:00,17.6,9.2,30.08,West,270,2.2,3.4,69,0.00,,,0.00,WUHU216HW,2013-01-12 23:38:00,
2013-01-12 17:43:00,17.3,8.5,30.06,West,270,3.1,3.4,68,0.00,,,0.00,WUHU216HW,2013-01-12 23:43:00,
2013-01-12 17:48:00,17.1,8.6,30.07,West,270,2.5,3.4,69,0.00,,,0.00,WUHU216HW,2013-01-12 23:48:00,
2013-01-12 17:53:00,16.9,8.8,30.08,West,270,0.4,3.4,70,0.00,,,0.00,WUHU216HW,2013-01-12 23:53:00,
2013-01-12 17:58:00,16.9,9.1,30.08,West,270,1.6,3.4,71,0.00,,,0.00,WUHU216HW,2013-01-12 23:58:00,
2013-01-12 18:04:00,16.7,8.9,30.08,West,270,1.8,3.4,71,0.00,,,0.00,WUHU216HW,2013-01-13 00:04:00,
2013-01-12 18:09:00,16.6,8.5,30.08,West,270,2.9,3.6,70,0.00,,,0.00,WUHU216HW,2013-01-13 00:09:00,
2013-01-12 18:14:00,16.6,8.5,30.08,West,270,1.8,3.6,70,0.00,,,0.00,WUHU216HW,2013-01-13 00:14:00,
2013-01-12 18:19:00,16.4,8.3,30.09,West,270,1.1,3.4,70,0.00,,,0.00,WUHU216HW,2013-01-13 00:19:00,
2013-01-12 18:24:00,16.4,8.6,30.08,West,270,1.6,2.2,71,0.00,,,0.00,WUHU216HW,2013-01-13 00:24:00,
2013-01-12 18:29:00,16.2,7.7,30.08,West,270,1.6,2.2,69,0.00,,,0.00,WUHU216HW,2013-01-13 00:29:00,
2013-01-12 18:34:00,16.2,7.7,30.08,West,270,0.7,1.6,69,0.00,,,0.00,WUHU216HW,2013-01-13 00:34:00,
2013-01-12 18:39:00,16.2,7.7,30.07,West,270,0.4,1.8,69,0.00,,,0.00,WUHU216HW,2013-01-13 00:39:00,
2013-01-12 18:44:00,16.2,7.7,30.08,West,270,0.4,1.8,69,0.00,,,0.00,WUHU216HW,2013-01-13 00:44:00,
2013-01-12 18:49:00,16.2,7.7,30.08,West,270,2.2,2.5,69,0.00,,,0.00,WUHU216HW,2013-01-13 00:49:00,
2013-01-12 18:54:00,16.2,8.1,30.09,West,270,0.4,2.5,70,0.00,,,0.00,WUHU216HW,2013-01-13 00:54:00,
2013-01-12 18:59:00,16.4,8.3,30.09,West,270,1.1,1.3,70,0.00,,,0.00,WUHU216HW,2013-01-13 00:59:00,
2013-01-12 19:04:00,16.4,8.3,30.10,West,270,0.2,1.3,70,0.00,,,0.00,WUHU216HW,2013-01-13 01:04:00,
2013-01-12 19:09:00,16.4,8.3,30.09,West,270,0.4,1.1,70,0.00,,,0.00,WUHU216HW,2013-01-13 01:09:00,
2013-01-12 19:14:00,16.4,8.3,30.09,West,270,0.4,1.3,70,0.00,,,0.00,WUHU216HW,2013-01-13 01:14:00,
2013-01-12 19:19:00,16.4,8.6,30.10,West,270,0.0,1.3,71,0.00,,,0.00,WUHU216HW,2013-01-13 01:19:00,
2013-01-12 19:24:00,16.4,8.6,30.10,West,270,0.2,1.1,71,0.00,,,0.00,WUHU216HW,2013-01-13 01:24:00,
2013-01-12 19:29:00,16.4,8.6,30.09,West,270,0.4,0.4,71,0.00,,,0.00,WUHU216HW,2013-01-13 01:29:00,
2013-01-12 19:35:00,16.2,8.4,30.08,West,270,0.9,1.1,71,0.00,,,0.00,WUHU216HW,2013-01-13 01:35:00,
2013-01-12 19:40:00,16.2,8.4,30.09,West,270,0.0,1.8,71,0.00,,,0.00,WUHU216HW,2013-01-13 01:40:00,
2013-01-12 19:45:00,16.2,8.4,30.10,West,270,0.0,1.8,71,0.00,,,0.00,WUHU216HW,2013-01-13 01:45:00,
2013-01-12 19:50:00,16.2,8.4,30.09,West,270,1.1,1.1,71,0.00,,,0.00,WUHU216HW,2013-01-13 01:50:00,
2013-01-12 19:55:00,16.0,8.2,30.08,West,270,0.4,1.1,71,0.00,,,0.00,WUHU216HW,2013-01-13 01:55:00,
2013-01-12 20:00:00,16.0,8.2,30.10,West,270,1.1,1.1,71,0.00,,,0.00,WUHU216HW,2013-01-13 02:00:00,
2013-01-12 20:05:00,16.0,8.6,30.10,West,270,0.0,1.1,72,0.00,,,0.00,WUHU216HW,2013-01-13 02:05:00,
2013-01-12 20:10:00,16.0,8.2,30.11,West,270,1.1,1.3,71,0.00,,,0.00,WUHU216HW,2013-01-13 02:10:00,
2013-01-12 20:15:00,16.0,8.6,30.10,West,270,1.8,1.8,72,0.00,,,0.00,WUHU216HW,2013-01-13 02:15:00,
2013-01-12 20:20:00,15.8,8.0,30.09,West,270,2.5,2.5,71,0.00,,,0.00,WUHU216HW,2013-01-13 02:20:00,
2013-01-12 20:25:00,15.8,8.0,30.09,West,270,2.5,2.5,71,0.00,,,0.00,WUHU216HW,2013-01-13 02:25:00,
2013-01-12 20:30:00,15.7,7.9,30.09,West,270,1.1,2.5,71,0.00,,,0.00,WUHU216HW,2013-01-13 02:30:00,
2013-01-12 20:36:00,15.5,7.8,30.09,West,270,1.8,2.0,71,0.00,,,0.00,WUHU216HW,2013-01-13 02:36:00,
2013-01-12 20:41:00,15.5,7.8,30.09,West,270,1.1,1.8,71,0.00,,,0.00,WUHU216HW,2013-01-13 02:41:00,
2013-01-12 20:46:00,15.3,7.6,30.10,West,270,0.7,1.8,71,0.00,,,0.00,WUHU216HW,2013-01-13 02:46:00,
2013-01-12 20:51:00,15.1,7.7,30.09,West,270,1.1,1.8,72,0.00,,,0.00,WUHU216HW,2013-01-13 02:51:00,
2013-01-12 20:56:00,14.9,7.8,30.09,West,270,1.3,1.8,73,0.00,,,0.00,WUHU216HW,2013-01-13 02:56:00,
2013-01-12 21:01:00,14.8,7.7,30.09,West,270,1.1,1.8,73,0.00,,,0.00,WUHU216HW,2013-01-13 03:01:00,
2013-01-12 21:06:00,14.8,7.9,30.09,West,270,1.6,2.5,74,0.00,,,0.00,WUHU216HW,2013-01-13 03:06:00,
2013-01-12 21:11:00,14.6,7.5,30.09,West,270,1.6,2.5,73,0.00,,,0.00,WUHU216HW,2013-01-13 03:11:00,
2013-01-12 21:16:00,14.6,7.5,30.08,West,270,1.6,2.5,73,0.00,,,0.00,WUHU216HW,2013-01-13 03:16:00,
2013-01-12 21:21:00,14.4,7.7,30.08,West,270,1.6,1.8,74,0.00,,,0.00,WUHU216HW,2013-01-13 03:21:00,
2013-01-12 21:26:00,14.2,7.5,30.09,West,270,1.3,2.5,74,0.00,,,0.00,WUHU216HW,2013-01-13 03:26:00,
2013-01-12 21:31:00,14.2,7.5,30.09,West,270,2.0,2.5,74,0.00,,,0.00,WUHU216HW,2013-01-13 03:31:00,
2013-01-12 21:36:00,14.2,7.5,30.09,West,270,1.8,2.0,74,0.00,,,0.00,WUHU216HW,2013-01-13 03:36:00,
2013-01-12 21:41:00,14.0,7.3,30.10,West,270,2.5,2.5,74,0.00,,,0.00,WUHU216HW,2013-01-13 03:41:00,
2013-01-12 21:46:00,14.0,7.3,30.09,West,270,2.5,2.5,74,0.00,,,0.00,WUHU216HW,2013-01-13 03:46:00,
2013-01-12 21:51:00,14.0,7.3,30.08,West,270,2.0,2.5,74,0.00,,,0.00,WUHU216HW,2013-01-13 03:51:00,
2013-01-12 21:56:00,13.9,7.4,30.09,West,270,1.8,2.0,75,0.00,,,0.00,WUHU216HW,2013-01-13 03:56:00,
2013-01-12 22:01:00,13.5,7.0,30.08,West,270,1.6,1.8,75,0.00,,,0.00,WUHU216HW,2013-01-13 04:01:00,
2013-01-12 22:06:00,13.3,6.8,30.09,West,270,0.4,1.8,75,0.00,,,0.00,WUHU216HW,2013-01-13 04:06:00,
2013-01-12 22:11:00,13.1,6.9,30.09,West,270,0.7,1.1,76,0.00,,,0.00,WUHU216HW,2013-01-13 04:11:00,
2013-01-12 22:16:00,13.0,6.8,30.09,West,270,1.1,1.3,76,0.00,,,0.00,WUHU216HW,2013-01-13 04:16:00,
2013-01-12 22:21:00,12.8,6.6,30.10,West,270,0.7,1.3,76,0.00,,,0.00,WUHU216HW,2013-01-13 04:21:00,
2013-01-12 22:26:00,12.8,6.8,30.10,West,270,1.1,1.1,77,0.00,,,0.00,WUHU216HW,2013-01-13 04:26:00,
2013-01-12 22:31:00,13.0,7.0,30.10,West,270,0.4,1.1,77,0.00,,,0.00,WUHU216HW,2013-01-13 04:31:00,
2013-01-12 22:36:00,13.1,7.2,30.10,West,270,0.9,1.1,77,0.00,,,0.00,WUHU216HW,2013-01-13 04:36:00,
2013-01-12 22:41:00,13.3,7.4,30.10,West,270,1.1,1.1,77,0.00,,,0.00,WUHU216HW,2013-01-13 04:41:00,
2013-01-12 22:46:00,13.3,7.4,30.10,West,270,0.4,1.3,77,0.00,,,0.00,WUHU216HW,2013-01-13 04:46:00,
2013-01-12 22:51:00,13.1,7.2,30.10,West,270,0.7,1.8,77,0.00,,,0.00,WUHU216HW,2013-01-13 04:51:00,
2013-01-12 22:56:00,13.1,7.2,30.10,West,270,0.9,1.8,77,0.00,,,0.00,WUHU216HW,2013-01-13 04:56:00,
2013-01-12 23:00:00,13.1,7.2,30.10,West,270,1.1,1.1,77,0.00,,,0.00,WUHU216HW,2013-01-13 05:00:00,
2013-01-12 23:02:00,13.0,7.0,30.10,West,270,1.1,1.1,77,0.00,,,0.00,WUHU216HW,2013-01-13 05:02:00,
2013-01-12 23:05:00,12.8,6.6,30.09,West,270,1.1,1.8,76,0.00,,,0.00,WUHU216HW,2013-01-13 05:05:00,
2013-01-12 23:10:00,12.6,6.4,30.09,West,270,0.9,1.8,76,0.00,,,0.00,WUHU216HW,2013-01-13 05:10:00,
2013-01-12 23:15:00,12.6,6.4,30.09,West,270,0.9,0.9,76,0.00,,,0.00,WUHU216HW,2013-01-13 05:15:00,
2013-01-12 23:37:00,11.7,5.8,30.10,West,270,1.1,1.1,77,0.00,,,0.00,WUHU216HW,2013-01-13 05:37:00,
2013-01-12 23:42:00,11.7,5.8,30.10,West,270,1.1,1.1,77,0.00,,,0.00,WUHU216HW,2013-01-13 05:42:00,